User: anonymous   Login
Location: Home
(44.6062°N, 75.6910°W)
Time: 16:28:35
(UTC-04:00)
Language:

Apple - Orbit

View from above orbital plane
View from above orbital plane
View from above satellite
View from above satellite

Ground track
Ground track

The orbit data is extracted from the following two-line orbital elements,

1 12545U 81057B   18196.78500853 -.00000380 +00000-0 +00000-0 0  9991
2 12545 013.0539 326.2666 0023829 149.1600 225.0285 01.00041018093445
Epoch (UTC): 15 July 2018 18:50:24
Eccentricity: 0.0023829
inclination: 13.0539°
perigee height: 35750 km
apogee height: 35951 km
right ascension of ascending node: 326.2666°
argument of perigee: 149.1600°
revolutions per day: 1.00041018
mean anomaly at epoch: 225.0285°
orbit number at epoch: 9344

The dashed part of the orbit path shows where the satellite is in the earth's shadow,  

DLR